Regional Weather Roundup
Issued by NWS Upton, NY

Current Version | Previous Version | Graphics & Text | Print | Product List | Glossary Off
Versions: 1 2 3 4 5 6 7 8 9 10 11 12 13 14 15 16 17 18 19 20 21 22 23 24 25 26 27

000
ASUS41 KOKX 240509
RWROKX

REGIONAL WEATHER ROUNDUP
NATIONAL WEATHER SERVICE NEW YORK NY
100 AM EDT WED MAY 24 2017

NOTE: "FAIR" INDICATES FEW OR NO CLOUDS BELOW 12,000 FEET WITH NO
SIGNIFICANT WEATHER AND/OR OBSTRUCTIONS TO VISIBILITY.

NYZ071-072-176-178-NJZ106-104-240600-
NEW YORK CITY METRO AREA

CITY           SKY/WX    TMP DP  RH WIND       PRES   REMARKS
Central Park   CLOUDY    60  50  69 CALM      29.79F
Wall St Helipt CLOUDY    62  48  60 NE5       29.77F
Bronx Bot Gard   N/A     57  46  67 NE1       29.76F
LaGuardia APRT CLOUDY    61  50  67 NE5       29.76F
Kennedy INTL   CLOUDY    60  53  77 E3        29.77F
Breezy Point     N/A     57 N/A N/A NE3         N/A
Newark/Liberty CLOUDY    62  50  64 CALM      29.76F
Teterboro      CLOUDY    62  49  62 CALM      29.76F
$$

NYZ177-179-078>081-240600-
LONG ISLAND NEW YORK

CITY           SKY/WX    TMP DP  RH WIND       PRES   REMARKS
Jones Beach      N/A     57 N/A N/A E3          N/A
Matinecock PT  NOT AVBL
Farmingdale    CLOUDY    58  50  75 NE5       29.77F
MacArthur/ISP  CLOUDY    57  53  86 NE3       29.77F
Shirley        CLOUDY    56  53  90 CALM      29.78F
Mt Sinai Harb    N/A     57 N/A N/A MISG        N/A
Westhampton    CLOUDY    54  50  86 N6        29.80F
East Hampton     N/A     53  51  93 CALM      29.78F
Montauk          N/A     57  55  93 CALM      29.81F
$$

NYZ052-065-067-240600-
HUDSON VALLEY

CITY           SKY/WX    TMP DP  RH WIND       PRES   REMARKS
White Plains   CLOUDY    57  51  80 CALM      29.76F
Larchmont Harb   N/A     57 N/A N/A NE5         N/A
Croton O-T Hud   N/A     57 N/A N/A MISG        N/A
Newburgh       MOCLDY    55  54  94 CALM      29.80F
Montgomery     CLOUDY    53  50  89 CALM      29.78F
Poughkeepsie   CLOUDY    53  51  93 CALM      29.78F
Albany         CLOUDY    57  50  77 CALM      29.79F
$$

NJZ001-105-106-008-010-013-015-019>022-104-240600-
NEW JERSEY

CITY           SKY/WX    TMP DP  RH WIND       PRES   REMARKS
Newark/Liberty CLOUDY    62  50  64 CALM      29.76F
Teterboro      CLOUDY    62  49  62 CALM      29.76F
Caldwell       CLOUDY    60  54  80 CALM      29.78F
Somerville     CLOUDY    57  56  96 CALM      29.74F
Linden           N/A     61  50  67 CALM      29.76F
Perth Amboy      N/A     61 N/A N/A NE2         N/A
Sussex         CLOUDY    52  51  97 CALM      29.79F
Andover          N/A     55  53  93 NW3       29.77F
Trenton        CLOUDY    58  53  84 N3        29.75F
Millville      LGT RAIN  56  55  97 E8        29.72F
Atlantic City  LGT RAIN  57  54  89 NE5       29.73
Wrightstown    CLOUDY    57  52  82 NE6       29.72F
Toms River     LGT RAIN  56  53  90 NE5       29.75F
Belmar         LGT RAIN  57  51  80 E5        29.76F
$$

PAZ047>061-062-071-240600-
EASTERN PENNSYLVANIA

CITY           SKY/WX    TMP DP  RH WIND       PRES   REMARKS
Philadelphia   LGT RAIN  60  49  66 E6        29.75F
Allentown      CLOUDY    57  52  83 CALM      29.76F
Scranton       MOCLDY    55  49  80 E7        29.78F
$$

CTZ002-004>006-009-010-012-RIZ004-006-007-MAZ004-011-015-240600-
SOUTHERN NEW ENGLAND
 IN CT

CITY           SKY/WX    TMP DP  RH WIND       PRES   REMARKS
Bradley INTL   CLOUDY    55  53  93 CALM      29.79F
Hartford       CLOUDY    57  54  89 CALM      29.79F
Danbury        CLOUDY    53  51  93 CALM      29.80F
Wtrbury/Oxford   N/A     55  48  76 CALM      29.81F
Bridgeport     CLOUDY    59  52  77 SE3       29.78F
Meriden        CLOUDY    55  53  93 CALM      29.78F
New Haven      CLOUDY    57  53  86 CALM      29.79F
Chester          N/A     57  54  88 CALM      29.79F
Groton         CLOUDY    56  53  90 S6        29.79F
Wilimantic     MOCLDY    57  54  89 NE3       29.80F

 IN RI

CITY           SKY/WX    TMP DP  RH WIND       PRES   REMARKS
Providence     CLOUDY    56  55  97 CALM      29.81F
Block Island   CLOUDY    55  53  93 SE6       29.81F
Westerly       CLOUDY    56  53  90 CALM      29.81F
 IN MA

CITY           SKY/WX    TMP DP  RH WIND       PRES   REMARKS
Boston         CLOUDY    58  54  86 S6        29.82S
Worcester      PTCLDY    58  46  64 W3        29.82F
Westfield      CLOUDY    54  54 100 N3        29.79F
Provincetown   PTCLDY    54  53  97 S7        29.83F
Nantucket      CLOUDY    52  50  93 S8        29.83F
$$

ANZ330-335-338-340-345-350-353-355-240600-
COASTAL MARINE OBSERVATIONS


STATION/POSITION TIME  SKY/WX   TEMP    WIND        PRES    VSBY  WAVE
                                AIR SEA DIR/SP/G                  HT/PER
                 (UTC)          (F)     (DEG/KT/KT) (MB)    (MI)  (FT/S)
NY HARB ENTRANCE 0350            59 58   50/  4/  4 1008.7          3/ 8
20 S FIRE ISLAND 0450            56 56   90/  6/  8 1007.7          3/ 7
GREAT SOUTH BAY  0430            60 64   10/  4/  4   N/A
23 SSW MONTAUK P 0350            56 55              1010.2          3/ 7
15 E BARNEGAT LI 0430               58                N/A           3/ 7
HUDSON CANYON    0350            55 54   80/ 10/ 10 1008.6          4/ 7
KINGS POINT      0448            59 57  100/  2/  2 1007.9
EXECUTION ROCKS  0445            60                   N/A
CENTRAL LI SOUND 0430            56      50/  4/  6   N/A           0
EASTERN LI SOUND NOT AVBL
ROBBINS REEF     0448            61      70/  2/  2 1008.3
$$


>>>>>>>>>>>>>>>>>>>>>>>>>>>> KEY <<<<<<<<<<<<<<<<<<<<<<<<<<<
>                                                          <
>     SKY/WX - Sky Condition/Present Weather               <
>     TMP    - Temperature in Fahrenheit                   <
>     DP     - Dew Point in Fahrenheit                     <
>     RH     - Relative Humidity in Percent                <
>     WIND   - Direction (from) and Speed in MPH           <
>     PRES   - Mean Sea Level Pressure (inches of Hg)      <
>     WCI    - Wind Chill Index                            <
>     VSB    - VISIBILITY IN MILES                         <
>     HX     - HEAT INDEX                                  <
>     TC     - TEMPERATURE IN CELSIUS                      <
>     VRB    - VARIABLE WIND DIRECTION                     <
>                                                          <
>>>>>>>>>>>>>>>>>>>>>>>>>>>> KEY <<<<<<<<<<<<<<<<<<<<<<<<<<<




USA.gov is the U.S. government's official web portal to all federal, state and local government web resources and services.